Weather History for KHIB - May, 2013

Change the Weather History Date:

Wednesday, May 1, 2013

  Actual Average Record
Temperature  
Mean Temperature 38 °F -  
Max Temperature 44 °F 55 °F 81 °F (1999)
Min Temperature 32 °F 31 °F 16 °F (1966)
Degree Days  
Heating Degree Days 27    
Moisture  
Dew Point 23 °F    
Average Humidity 59    
Maximum Humidity 70    
Minimum Humidity 51    
Precipitation  
Precipitation 0.00 in - - ()
Sea Level Pressure  
Sea Level Pressure 30.28 in    
Wind  
Wind Speed 11 mph (WNW)    
Max Wind Speed 17 mph    
Max Gust Speed 22 mph    
Visibility 10 miles    
Events      
Averages and records for this station are not official NWS values.
T = Trace of Precipitation, MM = Missing Value Source: NWS Daily Summary

Daily Weather History Graph

Daily Weather History Graph

Search for Another Location

Airport or City:

Trip Planner

Search our weather history database for the weather conditions in past years. The results will help you decide how hot, cold, wet, or windy it might be!

Date:

Astronomy

May. 01, 2013 Rise Set
Actual Time 5:54 AM CDT 8:23 PM CDT
Civil Twilight 5:20 AM CDT 8:57 PM CDT
Nautical Twilight 4:37 AM CDT 9:40 PM CDT
Astronomical Twilight 3:47 AM CDT 10:30 PM CDT
Moon 1:34 AM CDT (5/1) 11:33 AM CDT (5/1)
Length of Visible Light 15h 37m
Length of Day
14h 28m
Waning Gibbous, 59% of the Moon is Illuminated
May 1
Waning Gibbous
May 2
Last Quarter
May 9
New
May 17
First Quarter
May 24
Full

Hourly Weather History & Observations

Time (CDT) Temp. Windchill Dew Point Humidity Pressure Visibility Wind Dir Wind Speed Gust Speed Precip Events Conditions
12:53 AM 44.1 °F 37.4 °F 30.9 °F 60% 29.95 in 10.0 mi WNW 13.8 mph 21.9 mph N/A   Clear
1:53 AM 42.1 °F 37.1 °F 30.0 °F 62% 29.99 in 10.0 mi West 8.1 mph - N/A   Clear
2:53 AM 39.0 °F 31.8 °F 28.0 °F 65% 30.04 in 10.0 mi West 11.5 mph - N/A   Scattered Clouds
3:14 AM 39.2 °F 32.5 °F 28.4 °F 65% 30.02 in 10.0 mi West 10.4 mph - N/A   Mostly Cloudy
3:53 AM 37.9 °F 31.5 °F 27.0 °F 65% 30.07 in 10.0 mi West 9.2 mph - N/A   Overcast
4:53 AM 35.1 °F 25.9 °F 26.1 °F 70% 30.08 in 10.0 mi WNW 13.8 mph - N/A   Overcast
5:19 AM 35.6 °F 29.2 °F 24.8 °F 65% 30.07 in 10.0 mi West 8.1 mph - N/A   Scattered Clouds
5:53 AM 33.1 °F 24.9 °F 19.9 °F 59% 30.13 in 10.0 mi West 10.4 mph - N/A   Clear
6:53 AM 32.0 °F 24.8 °F 19.9 °F 61% 30.19 in 10.0 mi WNW 8.1 mph - N/A   Mostly Cloudy
7:53 AM 32.0 °F 26.4 °F 21.0 °F 64% 30.24 in 10.0 mi West 5.8 mph - N/A   Overcast
8:53 AM 33.1 °F 26.1 °F 21.0 °F 61% 30.28 in 10.0 mi West 8.1 mph 16.1 mph N/A   Overcast
9:44 AM 33.8 °F 25.8 °F 21.2 °F 60% 30.24 in 10.0 mi WNW 10.4 mph 17.3 mph N/A   Scattered Clouds
9:53 AM 34.0 °F 26.0 °F 21.0 °F 59% 30.28 in 10.0 mi WNW 10.4 mph 18.4 mph N/A   Scattered Clouds
10:07 AM 33.8 °F 24.3 °F 21.2 °F 60% 30.26 in 10.0 mi WNW 13.8 mph - N/A   Mostly Cloudy
10:53 AM 35.1 °F 27.9 °F 21.0 °F 57% 30.30 in 10.0 mi WNW 9.2 mph - N/A   Overcast
11:53 AM 36.0 °F 28.0 °F 21.9 °F 57% 30.35 in 10.0 mi NW 11.5 mph - N/A   Overcast
12:53 PM 37.9 °F 30.9 °F 23.0 °F 55% 30.34 in 10.0 mi NW 10.4 mph - N/A   Overcast
1:26 PM 37.4 °F 28.2 °F 23.0 °F 56% 30.31 in 10.0 mi NW 16.1 mph 19.6 mph N/A   Overcast
2:53 PM 39.0 °F 31.8 °F 23.0 °F 53% 30.39 in 10.0 mi NW 11.5 mph 21.9 mph N/A   Mostly Cloudy
3:53 PM 41.0 °F 33.5 °F 24.1 °F 51% 30.41 in 10.0 mi WNW 13.8 mph - N/A   Overcast
4:53 PM 39.9 °F 31.1 °F 24.1 °F 53% 30.44 in 10.0 mi NW 17.3 mph - N/A   Overcast
6:53 PM 37.9 °F 30.0 °F 23.0 °F 55% 30.50 in 10.0 mi NW 12.7 mph - N/A   Scattered Clouds
7:53 PM 37.0 °F 30.4 °F 21.9 °F 54% 30.51 in 10.0 mi NNW 9.2 mph - N/A   Partly Cloudy
8:53 PM 36.0 °F 29.6 °F 21.0 °F 55% 30.53 in 10.0 mi NNW 8.1 mph - N/A   Clear
9:53 PM 35.1 °F 29.3 °F 21.9 °F 59% 30.55 in 10.0 mi NNW 6.9 mph - N/A   Mostly Cloudy
10:53 PM 35.1 °F 31.0 °F 21.9 °F 59% 30.56 in 10.0 mi North 4.6 mph - N/A   Overcast
11:53 PM 34.0 °F 26.6 °F 21.9 °F 61% 30.56 in 10.0 mi North 9.2 mph - N/A   Overcast